contact:dominique.lefevre@mio.osupytheas.fr, maurice.libes@osupytheas.fr, didier.mallarino@osupytheas.fr
Project:EMSO http://www.emso-fr.org/EMSO-France
Depth: 2436.0 m
Title:EMSO Ligure Ouest : Data MII capteur MICROCAT
DateTime_Computer,Latitude,Longitude,Temperature,Conductivity,Pressure,DateTime_Instrument
DateTime_Computer,Latitude,Longitude,degC,S m-1,dbar,DateTime_Instrument
2022-09-03T00:00:38Z,42.805,6.029,13.3007,4.60049,2470.413,2022-9-03T02:02:29Z
2022-09-03T00:03:41Z,42.805,6.029,13.3009,4.60051,2470.427,2022-9-03T02:05:32Z
2022-09-03T00:06:44Z,42.805,6.029,13.3007,4.60045,2470.413,2022-9-03T02:08:35Z
2022-09-03T00:09:47Z,42.805,6.029,13.3008,4.60046,2470.45,2022-9-03T02:11:38Z
2022-09-03T00:12:50Z,42.805,6.029,13.3009,4.60043,2470.413,2022-9-03T02:14:41Z
2022-09-03T00:15:53Z,42.805,6.029,13.3006,4.60044,2470.427,2022-9-03T02:17:44Z
2022-09-03T00:18:56Z,42.805,6.029,13.3006,4.60042,2470.39,2022-9-03T02:20:47Z
2022-09-03T00:21:59Z,42.805,6.029,13.3004,4.60045,2470.437,2022-9-03T02:23:50Z
2022-09-03T00:25:02Z,42.805,6.029,13.3005,4.60043,2470.39,2022-9-03T02:26:54Z
2022-09-03T00:28:06Z,42.805,6.029,13.3009,4.60044,2470.39,2022-9-03T02:29:57Z
2022-09-03T00:31:09Z,42.805,6.029,13.3008,4.60050,2470.404,2022-9-03T02:33:00Z
2022-09-03T00:34:12Z,42.805,6.029,13.3006,4.60044,2470.427,2022-9-03T02:36:03Z
2022-09-03T00:37:15Z,42.805,6.029,13.3004,4.60042,2470.413,2022-9-03T02:39:06Z
2022-09-03T00:40:18Z,42.805,6.029,13.3006,4.60043,2470.45,2022-9-03T02:42:09Z
2022-09-03T00:43:21Z,42.805,6.029,13.3004,4.60044,2470.413,2022-9-03T02:45:12Z
2022-09-03T00:46:24Z,42.805,6.029,13.3009,4.60044,2470.45,2022-9-03T02:48:15Z
2022-09-03T00:49:27Z,42.805,6.029,13.3006,4.60055,2470.404,2022-9-03T02:51:19Z
2022-09-03T00:52:31Z,42.805,6.029,13.3005,4.60044,2470.404,2022-9-03T02:54:22Z
2022-09-03T00:55:34Z,42.805,6.029,13.3004,4.60044,2470.404,2022-9-03T02:57:25Z
2022-09-03T00:58:37Z,42.805,6.029,13.3004,4.60044,2470.413,2022-9-03T03:00:28Z
2022-09-03T01:01:40Z,42.805,6.029,13.3005,4.60044,2470.39,2022-9-03T03:03:31Z
2022-09-03T01:04:43Z,42.805,6.029,13.3007,4.60046,2470.404,2022-9-03T03:06:34Z
2022-09-03T01:07:46Z,42.805,6.029,13.3003,4.60044,2470.404,2022-9-03T03:09:37Z
2022-09-03T01:10:49Z,42.805,6.029,13.3003,4.60045,2470.45,2022-9-03T03:12:40Z
2022-09-03T01:13:52Z,42.805,6.029,13.3006,4.60044,2470.39,2022-9-03T03:15:43Z
2022-09-03T01:16:55Z,42.805,6.029,13.3003,4.60040,2470.38,2022-9-03T03:18:47Z
2022-09-03T01:19:59Z,42.805,6.029,13.3005,4.60044,2470.404,2022-9-03T03:21:50Z
2022-09-03T01:23:02Z,42.805,6.029,13.3001,4.60043,2470.404,2022-9-03T03:24:53Z
2022-09-03T01:26:05Z,42.805,6.029,13.3006,4.60042,2470.427,2022-9-03T03:27:56Z
2022-09-03T01:29:08Z,42.805,6.029,13.3006,4.60043,2470.427,2022-9-03T03:30:59Z
2022-09-03T01:32:11Z,42.805,6.029,13.3004,4.60042,2470.39,2022-9-03T03:34:02Z
2022-09-03T01:35:14Z,42.805,6.029,13.3006,4.60043,2470.39,2022-9-03T03:37:05Z
2022-09-03T01:38:17Z,42.805,6.029,13.3009,4.60043,2470.39,2022-9-03T03:40:08Z
2022-09-03T01:41:20Z,42.805,6.029,13.3001,4.60044,2470.39,2022-9-03T03:43:12Z
2022-09-03T01:44:23Z,42.805,6.029,13.3006,4.60044,2470.38,2022-9-03T03:46:15Z
2022-09-03T01:47:27Z,42.805,6.029,13.3004,4.60043,2470.39,2022-9-03T03:49:18Z
2022-09-03T01:50:30Z,42.805,6.029,13.3006,4.60046,2470.39,2022-9-03T03:52:21Z
2022-09-03T01:53:33Z,42.805,6.029,13.3005,4.60048,2470.39,2022-9-03T03:55:24Z
2022-09-03T01:56:36Z,42.805,6.029,13.3004,4.60042,2470.366,2022-9-03T03:58:27Z
2022-09-03T01:59:39Z,42.805,6.029,13.3003,4.60045,2470.39,2022-9-03T04:01:30Z
2022-09-03T02:02:42Z,42.805,6.029,13.3003,4.60043,2470.39,2022-9-03T04:04:33Z
2022-09-03T02:05:45Z,42.805,6.029,13.3002,4.60043,2470.366,2022-9-03T04:07:36Z
2022-09-03T02:08:48Z,42.805,6.029,13.3002,4.60046,2470.404,2022-9-03T04:10:40Z
2022-09-03T02:11:52Z,42.805,6.029,13.3002,4.60044,2470.357,2022-9-03T04:13:43Z
2022-09-03T02:14:55Z,42.805,6.029,13.3002,4.60044,2470.343,2022-9-03T04:16:46Z
2022-09-03T02:17:58Z,42.805,6.029,13.3003,4.60042,2470.366,2022-9-03T04:19:49Z
2022-09-03T02:21:01Z,42.805,6.029,13.3002,4.60046,2470.366,2022-9-03T04:22:52Z
2022-09-03T02:24:04Z,42.805,6.029,13.3004,4.60043,2470.39,2022-9-03T04:25:55Z
2022-09-03T02:27:07Z,42.805,6.029,13.3003,4.60040,2470.366,2022-9-03T04:28:58Z
2022-09-03T02:30:10Z,42.805,6.029,13.3002,4.60042,2470.39,2022-9-03T04:32:01Z
2022-09-03T02:33:13Z,42.805,6.029,13.3006,4.60048,2470.366,2022-9-03T04:35:04Z
2022-09-03T02:36:16Z,42.805,6.029,13.3005,4.60044,2470.366,2022-9-03T04:38:08Z
2022-09-03T02:39:20Z,42.805,6.029,13.3001,4.60040,2470.366,2022-9-03T04:41:11Z
2022-09-03T02:42:23Z,42.805,6.029,13.3006,4.60042,2470.38,2022-9-03T04:44:14Z
2022-09-03T02:45:26Z,42.805,6.029,13.3003,4.60042,2470.404,2022-9-03T04:47:17Z
2022-09-03T02:48:29Z,42.805,6.029,13.3002,4.60042,2470.366,2022-9-03T04:50:20Z
2022-09-03T02:51:32Z,42.805,6.029,13.3004,4.60042,2470.343,2022-9-03T04:53:23Z
2022-09-03T02:54:35Z,42.805,6.029,13.3006,4.60042,2470.366,2022-9-03T04:56:26Z
2022-09-03T02:57:38Z,42.805,6.029,13.3007,4.60042,2470.366,2022-9-03T04:59:29Z
2022-09-03T03:00:41Z,42.805,6.029,13.3004,4.60054,2470.366,2022-9-03T05:02:33Z
2022-09-03T03:03:44Z,42.805,6.029,13.3007,4.60042,2470.366,2022-9-03T05:05:36Z
2022-09-03T03:06:48Z,42.805,6.029,13.3004,4.60042,2470.357,2022-9-03T05:08:39Z
2022-09-03T03:09:51Z,42.805,6.029,13.3007,4.60046,2470.38,2022-9-03T05:11:42Z
2022-09-03T03:12:54Z,42.805,6.029,13.3000,4.60077,2470.38,2022-9-03T05:14:45Z
2022-09-03T03:15:57Z,42.805,6.029,13.3005,4.60049,2470.366,2022-9-03T05:17:48Z
2022-09-03T03:19:00Z,42.805,6.029,13.3006,4.60046,2470.357,2022-9-03T05:20:51Z
2022-09-03T03:22:03Z,42.805,6.029,13.3002,4.60046,2470.343,2022-9-03T05:23:54Z
2022-09-03T03:25:06Z,42.805,6.029,13.3007,4.60045,2470.38,2022-9-03T05:26:57Z
2022-09-03T03:28:09Z,42.805,6.029,13.3004,4.60042,2470.32,2022-9-03T05:30:01Z
2022-09-03T03:31:13Z,42.805,6.029,13.3004,4.60042,2470.357,2022-9-03T05:33:04Z
2022-09-03T03:34:16Z,42.805,6.029,13.3004,4.60042,2470.366,2022-9-03T05:36:07Z
2022-09-03T03:37:19Z,42.805,6.029,13.3002,4.60044,2470.357,2022-9-03T05:39:10Z
2022-09-03T03:40:22Z,42.805,6.029,13.3001,4.60046,2470.38,2022-9-03T05:42:13Z
2022-09-03T03:43:25Z,42.805,6.029,13.3009,4.60044,2470.366,2022-9-03T05:45:16Z
2022-09-03T03:46:28Z,42.805,6.029,13.3005,4.60044,2470.366,2022-9-03T05:48:19Z
2022-09-03T03:49:31Z,42.805,6.029,13.3004,4.60044,2470.334,2022-9-03T05:51:22Z
2022-09-03T03:52:34Z,42.805,6.029,13.3004,4.60041,2470.343,2022-9-03T05:54:26Z
2022-09-03T03:55:37Z,42.805,6.029,13.3004,4.60040,2470.357,2022-9-03T05:57:29Z
2022-09-03T03:58:41Z,42.805,6.029,13.2998,4.60041,2470.343,2022-9-03T06:00:32Z
2022-09-03T04:01:44Z,42.805,6.029,13.3002,4.60041,2470.38,2022-9-03T06:03:35Z
2022-09-03T04:04:47Z,42.805,6.029,13.3004,4.60043,2470.38,2022-9-03T06:06:38Z
2022-09-03T04:07:50Z,42.805,6.029,13.3008,4.60043,2470.334,2022-9-03T06:09:41Z
2022-09-03T04:10:53Z,42.805,6.029,13.3004,4.60046,2470.366,2022-9-03T06:12:44Z
2022-09-03T04:13:56Z,42.805,6.029,13.3006,4.60045,2470.343,2022-9-03T06:15:47Z
2022-09-03T04:16:59Z,42.805,6.029,13.3003,4.60043,2470.334,2022-9-03T06:18:50Z
2022-09-03T04:20:02Z,42.805,6.029,13.3004,4.60042,2470.343,2022-9-03T06:21:54Z
2022-09-03T04:23:06Z,42.805,6.029,13.3000,4.60043,2470.32,2022-9-03T06:24:57Z
2022-09-03T04:26:09Z,42.805,6.029,13.3004,4.60041,2470.366,2022-9-03T06:28:00Z
2022-09-03T04:29:12Z,42.805,6.029,13.3003,4.60044,2470.357,2022-9-03T06:31:03Z
2022-09-03T04:32:15Z,42.805,6.029,13.3004,4.60045,2470.343,2022-9-03T06:34:06Z
2022-09-03T04:35:18Z,42.805,6.029,13.3001,4.60046,2470.343,2022-9-03T06:37:09Z
2022-09-03T04:38:21Z,42.805,6.029,13.3002,4.60043,2470.297,2022-9-03T06:40:12Z
2022-09-03T04:41:24Z,42.805,6.029,13.3006,4.60043,2470.297,2022-9-03T06:43:15Z
2022-09-03T04:44:27Z,42.805,6.029,13.3002,4.60042,2470.343,2022-9-03T06:46:18Z
2022-09-03T04:47:30Z,42.805,6.029,13.3006,4.60043,2470.334,2022-9-03T06:49:22Z
2022-09-03T04:50:34Z,42.805,6.029,13.3004,4.60046,2470.357,2022-9-03T06:52:25Z
2022-09-03T04:53:37Z,42.805,6.029,13.3006,4.60043,2470.343,2022-9-03T06:55:28Z
2022-09-03T04:56:40Z,42.805,6.029,13.3006,4.60044,2470.357,2022-9-03T06:58:31Z
2022-09-03T04:59:43Z,42.805,6.029,13.3004,4.60045,2470.334,2022-9-03T07:01:34Z
2022-09-03T05:02:46Z,42.805,6.029,13.3003,4.60046,2470.357,2022-9-03T07:04:37Z
2022-09-03T05:05:49Z,42.805,6.029,13.3000,4.60045,2470.31,2022-9-03T07:07:40Z
2022-09-03T05:08:52Z,42.805,6.029,13.3006,4.60044,2470.32,2022-9-03T07:10:43Z
2022-09-03T05:11:55Z,42.805,6.029,13.3007,4.60043,2470.343,2022-9-03T07:13:47Z
2022-09-03T05:14:59Z,42.805,6.029,13.2998,4.60046,2470.32,2022-9-03T07:16:50Z
2022-09-03T05:18:02Z,42.805,6.029,13.3004,4.60052,2470.38,2022-9-03T07:19:53Z
2022-09-03T05:21:05Z,42.805,6.029,13.3004,4.60044,2470.343,2022-9-03T07:22:56Z
2022-09-03T05:24:08Z,42.805,6.029,13.3005,4.60042,2470.343,2022-9-03T07:25:59Z
2022-09-03T05:27:11Z,42.805,6.029,13.3009,4.60049,2470.343,2022-9-03T07:29:02Z
2022-09-03T05:30:14Z,42.805,6.029,13.3003,4.60045,2470.343,2022-9-03T07:32:05Z
2022-09-03T05:33:17Z,42.805,6.029,13.3008,4.60049,2470.357,2022-9-03T07:35:08Z
2022-09-03T05:36:20Z,42.805,6.029,13.3005,4.60055,2470.38,2022-9-03T07:38:11Z
2022-09-03T05:39:23Z,42.805,6.029,13.3009,4.60048,2470.353,2022-9-03T07:41:15Z
2022-09-03T05:42:27Z,42.805,6.029,13.3013,4.60050,2470.39,2022-9-03T07:44:18Z
2022-09-03T05:45:30Z,42.805,6.029,13.3013,4.60054,2470.357,2022-9-03T07:47:21Z
2022-09-03T05:48:33Z,42.805,6.029,13.3009,4.60062,2470.366,2022-9-03T07:50:24Z
2022-09-03T05:51:36Z,42.805,6.029,13.3014,4.60047,2470.343,2022-9-03T07:53:27Z
2022-09-03T05:54:39Z,42.805,6.029,13.3006,4.60064,2470.366,2022-9-03T07:56:30Z
2022-09-03T05:57:42Z,42.805,6.029,13.3012,4.60047,2470.39,2022-9-03T07:59:33Z
2022-09-03T06:00:45Z,42.805,6.029,13.3011,4.60046,2470.366,2022-9-03T08:02:36Z
2022-09-03T06:03:48Z,42.805,6.029,13.3010,4.60055,2470.334,2022-9-03T08:05:40Z
2022-09-03T06:06:52Z,42.805,6.029,13.3013,4.60057,2470.357,2022-9-03T08:08:43Z
2022-09-03T06:09:55Z,42.805,6.029,13.3014,4.60063,2470.38,2022-9-03T08:11:46Z
2022-09-03T06:12:58Z,42.805,6.029,13.3009,4.60052,2470.32,2022-9-03T08:14:49Z
2022-09-03T06:16:01Z,42.805,6.029,13.3010,4.60051,2470.38,2022-9-03T08:17:52Z
2022-09-03T06:19:04Z,42.805,6.029,13.3014,4.60054,2470.39,2022-9-03T08:20:55Z
2022-09-03T06:22:07Z,42.805,6.029,13.3012,4.60053,2470.357,2022-9-03T08:23:58Z
2022-09-03T06:25:10Z,42.805,6.029,13.3009,4.60072,2470.357,2022-9-03T08:27:01Z
2022-09-03T06:28:13Z,42.805,6.029,13.3015,4.60072,2470.366,2022-9-03T08:30:04Z
2022-09-03T06:31:16Z,42.805,6.029,13.3014,4.60080,2470.357,2022-9-03T08:33:08Z
2022-09-03T06:34:20Z,42.805,6.029,13.3011,4.60087,2470.38,2022-9-03T08:36:11Z
2022-09-03T06:37:23Z,42.805,6.029,13.3018,4.60082,2470.38,2022-9-03T08:39:14Z
2022-09-03T06:40:26Z,42.805,6.029,13.3004,4.60059,2470.38,2022-9-03T08:42:17Z
2022-09-03T06:43:29Z,42.805,6.029,13.3004,4.60089,2470.38,2022-9-03T08:45:20Z
2022-09-03T06:46:32Z,42.805,6.029,13.3005,4.60079,2470.366,2022-9-03T08:48:23Z
2022-09-03T06:49:35Z,42.805,6.029,13.3004,4.60058,2470.334,2022-9-03T08:51:26Z
2022-09-03T06:52:38Z,42.805,6.029,13.3003,4.60064,2470.38,2022-9-03T08:54:29Z
2022-09-03T06:55:41Z,42.805,6.029,13.3005,4.60076,2470.357,2022-9-03T08:57:33Z
2022-09-03T06:58:45Z,42.805,6.029,13.3002,4.60074,2470.343,2022-9-03T09:00:36Z
2022-09-03T07:01:48Z,42.805,6.029,13.3008,4.60062,2470.357,2022-9-03T09:03:39Z
2022-09-03T07:04:51Z,42.805,6.029,13.3004,4.60061,2470.366,2022-9-03T09:06:42Z
2022-09-03T07:07:54Z,42.805,6.029,13.3004,4.60059,2470.343,2022-9-03T09:09:45Z
2022-09-03T07:10:57Z,42.805,6.029,13.3002,4.60064,2470.38,2022-9-03T09:12:48Z
2022-09-03T07:14:00Z,42.805,6.029,13.3004,4.60063,2470.38,2022-9-03T09:15:51Z
2022-09-03T07:17:03Z,42.805,6.029,13.3004,4.60053,2470.32,2022-9-03T09:18:54Z
2022-09-03T07:20:06Z,42.805,6.029,13.3005,4.60058,2470.38,2022-9-03T09:21:57Z
2022-09-03T07:23:09Z,42.805,6.029,13.3009,4.60059,2470.366,2022-9-03T09:25:01Z
2022-09-03T07:26:13Z,42.805,6.029,13.3009,4.60063,2470.38,2022-9-03T09:28:04Z
2022-09-03T07:29:16Z,42.805,6.029,13.3009,4.60059,2470.366,2022-9-03T09:31:07Z
2022-09-03T07:32:19Z,42.805,6.029,13.3004,4.60058,2470.38,2022-9-03T09:34:10Z
2022-09-03T07:35:22Z,42.805,6.029,13.3004,4.60067,2470.404,2022-9-03T09:37:13Z
2022-09-03T07:38:25Z,42.805,6.029,13.3004,4.60059,2470.404,2022-9-03T09:40:16Z
2022-09-03T07:41:28Z,42.805,6.029,13.3005,4.60057,2470.38,2022-9-03T09:43:19Z
2022-09-03T07:44:31Z,42.805,6.029,13.3004,4.60053,2470.427,2022-9-03T09:46:22Z
2022-09-03T07:47:34Z,42.805,6.029,13.3005,4.60064,2470.39,2022-9-03T09:49:26Z
2022-09-03T07:50:37Z,42.805,6.029,13.3006,4.60061,2470.39,2022-9-03T09:52:29Z
2022-09-03T07:53:41Z,42.805,6.029,13.3006,4.60062,2470.38,2022-9-03T09:55:32Z
2022-09-03T07:56:44Z,42.805,6.029,13.3007,4.60056,2470.39,2022-9-03T09:58:35Z
2022-09-03T07:59:47Z,42.805,6.029,13.3005,4.60062,2470.404,2022-9-03T10:01:38Z
2022-09-03T08:02:50Z,42.805,6.029,13.3004,4.60066,2470.39,2022-9-03T10:04:41Z
2022-09-03T08:05:53Z,42.805,6.029,13.3007,4.60067,2470.404,2022-9-03T10:07:44Z
2022-09-03T08:08:56Z,42.805,6.029,13.3004,4.60064,2470.39,2022-9-03T10:10:47Z
2022-09-03T08:11:59Z,42.805,6.029,13.3004,4.60067,2470.413,2022-9-03T10:13:50Z
2022-09-03T08:15:02Z,42.805,6.029,13.3004,4.60067,2470.39,2022-9-03T10:16:54Z
2022-09-03T08:18:06Z,42.805,6.029,13.3008,4.60067,2470.427,2022-9-03T10:19:57Z
2022-09-03T08:21:09Z,42.805,6.029,13.3006,4.60063,2470.404,2022-9-03T10:23:00Z
2022-09-03T08:24:12Z,42.805,6.029,13.3005,4.60062,2470.404,2022-9-03T10:26:03Z
2022-09-03T08:27:15Z,42.805,6.029,13.3010,4.60058,2470.437,2022-9-03T10:29:06Z
2022-09-03T08:30:18Z,42.805,6.029,13.3007,4.60064,2470.437,2022-9-03T10:32:09Z
2022-09-03T08:33:21Z,42.805,6.029,13.3006,4.60062,2470.437,2022-9-03T10:35:12Z
2022-09-03T08:36:24Z,42.805,6.029,13.3006,4.60062,2470.437,2022-9-03T10:38:15Z
2022-09-03T08:39:27Z,42.805,6.029,13.3004,4.60057,2470.45,2022-9-03T10:41:19Z
2022-09-03T08:42:31Z,42.805,6.029,13.3009,4.60057,2470.413,2022-9-03T10:44:22Z
2022-09-03T08:45:34Z,42.805,6.029,13.3004,4.60054,2470.45,2022-9-03T10:47:25Z
2022-09-03T08:48:37Z,42.805,6.029,13.3006,4.60054,2470.437,2022-9-03T10:50:28Z
2022-09-03T08:51:40Z,42.805,6.029,13.3005,4.60058,2470.413,2022-9-03T10:53:31Z
2022-09-03T08:54:43Z,42.805,6.029,13.3007,4.60059,2470.413,2022-9-03T10:56:34Z
2022-09-03T08:57:46Z,42.805,6.029,13.3005,4.60059,2470.427,2022-9-03T10:59:37Z
2022-09-03T09:00:49Z,42.805,6.029,13.3004,4.60057,2470.437,2022-9-03T11:02:40Z
2022-09-03T09:03:52Z,42.805,6.029,13.3002,4.60059,2470.437,2022-9-03T11:05:44Z
2022-09-03T09:06:55Z,42.805,6.029,13.3002,4.60061,2470.46,2022-9-03T11:08:47Z
2022-09-03T09:09:59Z,42.805,6.029,13.3009,4.60059,2470.413,2022-9-03T11:11:50Z
2022-09-03T09:13:02Z,42.805,6.029,13.3005,4.60061,2470.474,2022-9-03T11:14:53Z
2022-09-03T09:16:05Z,42.805,6.029,13.3004,4.60056,2470.446,2022-9-03T11:17:56Z
2022-09-03T09:19:08Z,42.805,6.029,13.3009,4.60059,2470.46,2022-9-03T11:20:59Z
2022-09-03T09:22:11Z,42.805,6.029,13.3008,4.60056,2470.437,2022-9-03T11:24:02Z
2022-09-03T09:25:14Z,42.805,6.029,13.3004,4.60062,2470.46,2022-9-03T11:27:05Z
2022-09-03T09:28:17Z,42.805,6.029,13.3006,4.60058,2470.52,2022-9-03T11:30:09Z
2022-09-03T09:31:20Z,42.805,6.029,13.3004,4.60057,2470.46,2022-9-03T11:33:12Z
2022-09-03T09:34:24Z,42.805,6.029,13.3009,4.60055,2470.483,2022-9-03T11:36:15Z
2022-09-03T09:37:27Z,42.805,6.029,13.3003,4.60055,2470.46,2022-9-03T11:39:18Z
2022-09-03T09:40:30Z,42.805,6.029,13.3003,4.60055,2470.46,2022-9-03T11:42:21Z
2022-09-03T09:43:33Z,42.805,6.029,13.3006,4.60054,2470.46,2022-9-03T11:45:24Z
2022-09-03T09:46:36Z,42.805,6.029,13.3003,4.60052,2470.483,2022-9-03T11:48:27Z
2022-09-03T09:49:39Z,42.805,6.029,13.3002,4.60050,2470.483,2022-9-03T11:51:30Z
2022-09-03T09:52:42Z,42.805,6.029,13.3002,4.60052,2470.46,2022-9-03T11:54:33Z
2022-09-03T09:55:45Z,42.805,6.029,13.3004,4.60052,2470.483,2022-9-03T11:57:37Z
2022-09-03T09:58:49Z,42.805,6.029,13.3004,4.60050,2470.507,2022-9-03T12:00:40Z
2022-09-03T10:01:52Z,42.805,6.029,13.3006,4.60057,2470.497,2022-9-03T12:03:43Z
2022-09-03T10:04:55Z,42.805,6.029,13.3004,4.60054,2470.507,2022-9-03T12:06:46Z
2022-09-03T10:07:58Z,42.805,6.029,13.3004,4.60052,2470.507,2022-9-03T12:09:49Z
2022-09-03T10:11:01Z,42.805,6.029,13.3002,4.60052,2470.483,2022-9-03T12:12:52Z
2022-09-03T10:14:04Z,42.805,6.029,13.3006,4.60052,2470.483,2022-9-03T12:15:55Z
2022-09-03T10:17:07Z,42.805,6.029,13.3006,4.60056,2470.483,2022-9-03T12:18:58Z
2022-09-03T10:20:10Z,42.805,6.029,13.3004,4.60057,2470.497,2022-9-03T12:22:02Z
2022-09-03T10:23:14Z,42.805,6.029,13.3004,4.60058,2470.483,2022-9-03T12:25:05Z
2022-09-03T10:26:17Z,42.805,6.029,13.3006,4.60056,2470.497,2022-9-03T12:28:08Z
2022-09-03T10:29:20Z,42.805,6.029,13.3004,4.60058,2470.544,2022-9-03T12:31:11Z
2022-09-03T10:32:23Z,42.805,6.029,13.3002,4.60059,2470.507,2022-9-03T12:34:14Z
2022-09-03T10:35:26Z,42.805,6.029,13.3001,4.60068,2470.544,2022-9-03T12:37:17Z
2022-09-03T10:38:29Z,42.805,6.029,13.3008,4.60057,2470.53,2022-9-03T12:40:20Z
2022-09-03T10:41:32Z,42.805,6.029,13.3007,4.60055,2470.483,2022-9-03T12:43:23Z
2022-09-03T10:44:35Z,42.805,6.029,13.3005,4.60056,2470.507,2022-9-03T12:46:27Z
2022-09-03T10:47:38Z,42.805,6.029,13.3004,4.60058,2470.53,2022-9-03T12:49:30Z
2022-09-03T10:50:42Z,42.805,6.029,13.3006,4.60060,2470.52,2022-9-03T12:52:33Z
2022-09-03T10:53:45Z,42.805,6.029,13.3002,4.60056,2470.52,2022-9-03T12:55:36Z
2022-09-03T10:56:48Z,42.805,6.029,13.3005,4.60052,2470.53,2022-9-03T12:58:39Z
2022-09-03T10:59:51Z,42.805,6.029,13.3006,4.60051,2470.544,2022-9-03T13:01:42Z
2022-09-03T11:02:54Z,42.805,6.029,13.3006,4.60051,2470.544,2022-9-03T13:04:45Z
2022-09-03T11:05:57Z,42.805,6.029,13.3005,4.60052,2470.52,2022-9-03T13:07:48Z
2022-09-03T11:09:00Z,42.805,6.029,13.3004,4.60052,2470.53,2022-9-03T13:10:52Z
2022-09-03T11:12:03Z,42.805,6.029,13.3009,4.60058,2470.507,2022-9-03T13:13:55Z
2022-09-03T11:15:07Z,42.805,6.029,13.3006,4.60060,2470.544,2022-9-03T13:16:58Z
2022-09-03T11:18:10Z,42.805,6.029,13.3004,4.60057,2470.544,2022-9-03T13:20:01Z
2022-09-03T11:21:13Z,42.805,6.029,13.3010,4.60049,2470.53,2022-9-03T13:23:04Z
2022-09-03T11:24:16Z,42.805,6.029,13.3009,4.60066,2470.553,2022-9-03T13:26:07Z
2022-09-03T11:27:19Z,42.805,6.029,13.3009,4.60055,2470.544,2022-9-03T13:29:10Z
2022-09-03T11:30:22Z,42.805,6.029,13.3007,4.60052,2470.544,2022-9-03T13:32:13Z
2022-09-03T11:33:25Z,42.805,6.029,13.3004,4.60052,2470.53,2022-9-03T13:35:16Z
2022-09-03T11:36:28Z,42.805,6.029,13.3005,4.60057,2470.507,2022-9-03T13:38:20Z
2022-09-03T11:39:32Z,42.805,6.029,13.3007,4.60055,2470.493,2022-9-03T13:41:23Z
2022-09-03T11:42:35Z,42.805,6.029,13.3008,4.60053,2470.553,2022-9-03T13:44:26Z
2022-09-03T11:45:38Z,42.805,6.029,13.3006,4.60053,2470.52,2022-9-03T13:47:29Z
2022-09-03T11:48:41Z,42.805,6.029,13.3005,4.60054,2470.553,2022-9-03T13:50:32Z
2022-09-03T11:51:44Z,42.805,6.029,13.3005,4.60054,2470.53,2022-9-03T13:53:35Z
2022-09-03T11:54:47Z,42.805,6.029,13.3007,4.60057,2470.567,2022-9-03T13:56:38Z
2022-09-03T11:57:50Z,42.805,6.029,13.3006,4.60054,2470.53,2022-9-03T13:59:41Z
2022-09-03T12:00:53Z,42.805,6.029,13.3004,4.60052,2470.577,2022-9-03T14:02:45Z
2022-09-03T12:03:56Z,42.805,6.029,13.3005,4.60055,2470.553,2022-9-03T14:05:48Z
2022-09-03T12:07:00Z,42.805,6.029,13.3006,4.60049,2470.553,2022-9-03T14:08:51Z
2022-09-03T12:10:03Z,42.805,6.029,13.3003,4.60031,2470.553,2022-9-03T14:11:54Z
2022-09-03T12:13:06Z,42.805,6.029,13.3006,4.60049,2470.507,2022-9-03T14:14:57Z
2022-09-03T12:16:09Z,42.805,6.029,13.3004,4.60053,2470.567,2022-9-03T14:18:00Z
2022-09-03T12:19:12Z,42.805,6.029,13.3004,4.60064,2470.567,2022-9-03T14:21:03Z
2022-09-03T12:22:15Z,42.805,6.029,13.3006,4.60055,2470.591,2022-9-03T14:24:06Z
2022-09-03T12:25:18Z,42.805,6.029,13.3004,4.60054,2470.553,2022-9-03T14:27:10Z
2022-09-03T12:28:21Z,42.805,6.029,13.3007,4.60058,2470.53,2022-9-03T14:30:13Z
2022-09-03T12:31:25Z,42.805,6.029,13.3006,4.60059,2470.553,2022-9-03T14:33:16Z
2022-09-03T12:34:28Z,42.805,6.029,13.3006,4.60054,2470.577,2022-9-03T14:36:19Z
2022-09-03T12:37:31Z,42.805,6.029,13.3005,4.60045,2470.544,2022-9-03T14:39:22Z
2022-09-03T12:40:34Z,42.805,6.029,13.3006,4.60047,2470.553,2022-9-03T14:42:25Z
2022-09-03T12:43:37Z,42.805,6.029,13.3005,4.60046,2470.567,2022-9-03T14:45:28Z
2022-09-03T12:46:40Z,42.805,6.029,13.3006,4.60052,2470.553,2022-9-03T14:48:31Z
2022-09-03T12:49:43Z,42.805,6.029,13.3007,4.60046,2470.577,2022-9-03T14:51:35Z
2022-09-03T12:52:46Z,42.805,6.029,13.3006,4.60054,2470.577,2022-9-03T14:54:38Z
2022-09-03T12:55:50Z,42.805,6.029,13.3006,4.60052,2470.53,2022-9-03T14:57:41Z
2022-09-03T12:58:53Z,42.805,6.029,13.3004,4.60054,2470.577,2022-9-03T15:00:44Z
2022-09-03T13:01:56Z,42.805,6.029,13.3012,4.60046,2470.553,2022-9-03T15:03:47Z
2022-09-03T13:04:59Z,42.805,6.029,13.3005,4.60053,2470.53,2022-9-03T15:06:50Z
2022-09-03T13:08:02Z,42.805,6.029,13.3009,4.60049,2470.553,2022-9-03T15:09:53Z
2022-09-03T13:11:05Z,42.805,6.029,13.3006,4.60053,2470.544,2022-9-03T15:12:56Z
2022-09-03T13:14:08Z,42.805,6.029,13.3005,4.60047,2470.577,2022-9-03T15:15:59Z
2022-09-03T13:17:11Z,42.805,6.029,13.3004,4.60049,2470.553,2022-9-03T15:19:03Z
2022-09-03T13:20:15Z,42.805,6.029,13.3005,4.60045,2470.53,2022-9-03T15:22:06Z
2022-09-03T13:23:18Z,42.805,6.029,13.3009,4.60048,2470.53,2022-9-03T15:25:09Z
2022-09-03T13:26:21Z,42.805,6.029,13.3008,4.60050,2470.577,2022-9-03T15:28:12Z
2022-09-03T13:29:24Z,42.805,6.029,13.3005,4.60050,2470.577,2022-9-03T15:31:15Z
2022-09-03T13:32:27Z,42.805,6.029,13.3006,4.60046,2470.553,2022-9-03T15:34:18Z
2022-09-03T13:35:30Z,42.805,6.029,13.3005,4.60051,2470.591,2022-9-03T15:37:21Z
2022-09-03T13:38:33Z,42.805,6.029,13.3005,4.60044,2470.553,2022-9-03T15:40:24Z
2022-09-03T13:41:36Z,42.805,6.029,13.3006,4.60049,2470.53,2022-9-03T15:43:28Z
2022-09-03T13:44:40Z,42.805,6.029,13.3005,4.60050,2470.577,2022-9-03T15:46:31Z
2022-09-03T13:47:43Z,42.805,6.029,13.3006,4.60052,2470.591,2022-9-03T15:49:34Z
2022-09-03T13:50:46Z,42.805,6.029,13.3004,4.60051,2470.553,2022-9-03T15:52:37Z
2022-09-03T13:53:49Z,42.805,6.029,13.3004,4.60047,2470.53,2022-9-03T15:55:40Z
2022-09-03T13:56:52Z,42.805,6.029,13.3006,4.60046,2470.553,2022-9-03T15:58:43Z
2022-09-03T13:59:55Z,42.805,6.029,13.3004,4.60051,2470.544,2022-9-03T16:01:46Z
2022-09-03T14:02:58Z,42.805,6.029,13.3009,4.60046,2470.567,2022-9-03T16:04:49Z
2022-09-03T14:06:01Z,42.805,6.029,13.3007,4.60046,2470.553,2022-9-03T16:07:53Z
2022-09-03T14:09:05Z,42.805,6.029,13.3005,4.60049,2470.577,2022-9-03T16:10:56Z
2022-09-03T14:12:08Z,42.805,6.029,13.3000,4.60046,2470.577,2022-9-03T16:13:59Z
2022-09-03T14:15:11Z,42.805,6.029,13.3006,4.60046,2470.544,2022-9-03T16:17:02Z
2022-09-03T14:18:14Z,42.805,6.029,13.3006,4.60054,2470.553,2022-9-03T16:20:05Z
2022-09-03T14:21:17Z,42.805,6.029,13.3005,4.60053,2470.567,2022-9-03T16:23:08Z
2022-09-03T14:24:20Z,42.805,6.029,13.3004,4.60046,2470.577,2022-9-03T16:26:11Z
2022-09-03T14:27:23Z,42.805,6.029,13.3009,4.60058,2470.544,2022-9-03T16:29:14Z
2022-09-03T14:30:26Z,42.805,6.029,13.3010,4.60057,2470.553,2022-9-03T16:32:18Z
2022-09-03T14:33:29Z,42.805,6.029,13.3011,4.60049,2470.553,2022-9-03T16:35:21Z
2022-09-03T14:36:33Z,42.805,6.029,13.3005,4.60049,2470.544,2022-9-03T16:38:24Z
2022-09-03T14:39:36Z,42.805,6.029,13.3013,4.60053,2470.567,2022-9-03T16:41:27Z
2022-09-03T14:42:39Z,42.805,6.029,13.3008,4.60050,2470.544,2022-9-03T16:44:30Z
2022-09-03T14:45:42Z,42.805,6.029,13.3008,4.60046,2470.544,2022-9-03T16:47:33Z
2022-09-03T14:48:45Z,42.805,6.029,13.3009,4.60050,2470.53,2022-9-03T16:50:36Z
2022-09-03T14:51:48Z,42.805,6.029,13.3008,4.60049,2470.567,2022-9-03T16:53:39Z
2022-09-03T14:54:51Z,42.805,6.029,13.3008,4.60054,2470.553,2022-9-03T16:56:43Z
2022-09-03T14:57:54Z,42.805,6.029,13.3006,4.60057,2470.53,2022-9-03T16:59:46Z
2022-09-03T15:00:58Z,42.805,6.029,13.3004,4.60052,2470.553,2022-9-03T17:02:49Z
2022-09-03T15:04:01Z,42.805,6.029,13.3007,4.60047,2470.553,2022-9-03T17:05:52Z
2022-09-03T15:07:04Z,42.805,6.029,13.3011,4.60046,2470.553,2022-9-03T17:08:55Z
2022-09-03T15:10:07Z,42.805,6.029,13.3006,4.60046,2470.53,2022-9-03T17:11:58Z
2022-09-03T15:13:10Z,42.805,6.029,13.3009,4.60047,2470.544,2022-9-03T17:15:01Z